LPE26X SPZO-SPTU

Flight info

Callsign LPE26X
Flight time 0h 40m
Altitude 23000
Route CEMIL UV10 PDO
Aircraft A20N/M-SDE2E3FGHIRWXY/LB1

Departure

Time 2026-04-24 02:18
Airport Alejandro Velasco Astete International Airport (SPZO)

Arrival

Time 2026-04-24 02:58
Airport Padre Aldamiz International Airport (SPTU)
Time Latitude Longitude Altitude Speed Heading
2026-04-24 01:48 -13.53778 -71.94415 10816 ft 0 kts 115°
2026-04-24 02:05 -13.53776 -71.94419 10816 ft 2 kts 115°
2026-04-24 02:05 -13.53768 -71.94437 10816 ft 3 kts 115°
2026-04-24 02:05 -13.53765 -71.94443 10815 ft 0 kts 115°
2026-04-24 02:11 -13.53765 -71.94441 10789 ft 0 kts 97°
2026-04-24 02:11 -13.53761 -71.94439 10816 ft 1 kts 45°
2026-04-24 02:11 -13.53752 -71.94443 10815 ft 4 kts 333°
2026-04-24 02:11 -13.53705 -71.94458 10816 ft 9 kts 358°
2026-04-24 02:12 -13.53652 -71.94472 10816 ft 8 kts 307°
2026-04-24 02:12 -13.53643 -71.94533 10816 ft 10 kts 275°
2026-04-24 02:12 -13.53637 -71.94595 10820 ft 7 kts 276°
2026-04-24 02:12 -13.53633 -71.94634 10822 ft 4 kts 277°
2026-04-24 02:13 -13.53630 -71.94655 10823 ft 2 kts 277°
2026-04-24 02:13 -13.53627 -71.94685 10823 ft 15 kts 276°
2026-04-24 02:13 -13.53611 -71.94840 10835 ft 24 kts 276°
2026-04-24 02:13 -13.53594 -71.95015 10849 ft 24 kts 275°
2026-04-24 02:14 -13.53581 -71.95162 10860 ft 19 kts 276°
2026-04-24 02:14 -13.53567 -71.95287 10863 ft 17 kts 277°
2026-04-24 02:14 -13.53551 -71.95410 10864 ft 17 kts 291°
2026-04-24 02:14 -13.53514 -71.95430 10863 ft 0 kts 16°
2026-04-24 02:16 -13.53504 -71.95429 10866 ft 4 kts
2026-04-24 02:16 -13.53458 -71.95423 10864 ft 9 kts
2026-04-24 02:17 -13.53423 -71.95394 10867 ft 0 kts 96°
2026-04-24 02:17 -13.53425 -71.95372 10865 ft 16 kts 95°
2026-04-24 02:17 -13.53462 -71.94968 10846 ft 98 kts 95°
2026-04-24 02:18 -13.53600 -71.93638 10814 ft 178 kts 97°
2026-04-24 02:18 -13.53766 -71.92309 11258 ft 200 kts 98°
2026-04-24 02:18 -13.53976 -71.90777 11598 ft 230 kts 97°
2026-04-24 02:18 -13.54183 -71.89107 12460 ft 245 kts 101°
2026-04-24 02:19 -13.54707 -71.87394 12976 ft 256 kts 115°
2026-04-24 02:19 -13.55216 -71.86309 13560 ft 254 kts 113°
2026-04-24 02:19 -13.55860 -71.84611 14428 ft 257 kts 109°
2026-04-24 02:19 -13.56484 -71.82877 15145 ft 260 kts 109°
2026-04-24 02:20 -13.57388 -71.80558 15947 ft 275 kts 111°
2026-04-24 02:20 -13.58149 -71.78666 16199 ft 299 kts 111°
2026-04-24 02:20 -13.58970 -71.76607 16410 ft 323 kts 111°
2026-04-24 02:20 -13.59602 -71.75141 16552 ft 340 kts 116°
2026-04-24 02:21 -13.60899 -71.73047 16741 ft 365 kts 127°
2026-04-24 02:21 -13.62652 -71.71082 17198 ft 378 kts 133°
2026-04-24 02:21 -13.64490 -71.69135 18051 ft 381 kts 132°
2026-04-24 02:21 -13.65914 -71.67207 18722 ft 382 kts 118°
2026-04-24 02:22 -13.66867 -71.64658 19369 ft 384 kts 101°
2026-04-24 02:22 -13.66939 -71.61030 20284 ft 388 kts 79°
2026-04-24 02:22 -13.66454 -71.59222 20732 ft 390 kts 69°
2026-04-24 02:22 -13.65168 -71.56756 21407 ft 394 kts 57°
2026-04-24 02:23 -13.63622 -71.54460 22062 ft 398 kts 58°
2026-04-24 02:23 -13.62289 -71.51953 22699 ft 401 kts 63°
2026-04-24 02:23 -13.61029 -71.49362 23133 ft 411 kts 64°
2026-04-24 02:23 -13.59783 -71.46658 23253 ft 427 kts 65°
2026-04-24 02:24 -13.58524 -71.43825 23269 ft 444 kts 66°
2026-04-24 02:24 -13.57235 -71.40879 23264 ft 460 kts 66°
2026-04-24 02:24 -13.55908 -71.37827 23271 ft 474 kts 66°
2026-04-24 02:24 -13.54544 -71.34693 23264 ft 487 kts 66°
2026-04-24 02:25 -13.53162 -71.31525 23269 ft 497 kts 66°
2026-04-24 02:25 -13.51740 -71.28268 23267 ft 503 kts 66°
2026-04-24 02:25 -13.50298 -71.24971 23276 ft 507 kts 66°
2026-04-24 02:25 -13.48860 -71.21702 23866 ft 498 kts 66°
2026-04-24 02:26 -13.47440 -71.18507 24186 ft 481 kts 66°
2026-04-24 02:26 -13.46078 -71.15459 24094 ft 460 kts 66°
2026-04-24 02:26 -13.44794 -71.12502 23761 ft 446 kts 67°
2026-04-24 02:26 -13.43557 -71.09632 23360 ft 434 kts 67°
2026-04-24 02:27 -13.42354 -71.06854 23226 ft 416 kts 66°
2026-04-24 02:27 -13.41215 -71.04238 23220 ft 399 kts 66°
2026-04-24 02:27 -13.40073 -71.01623 23217 ft 406 kts 66°
2026-04-24 02:27 -13.38912 -70.98970 23209 ft 407 kts 66°
2026-04-24 02:28 -13.37751 -70.96324 23202 ft 406 kts 66°
2026-04-24 02:28 -13.36590 -70.93679 23196 ft 407 kts 66°
2026-04-24 02:28 -13.35428 -70.91032 23187 ft 407 kts 66°
2026-04-24 02:28 -13.34266 -70.88387 23182 ft 407 kts 66°
2026-04-24 02:29 -13.33119 -70.85775 23168 ft 407 kts 66°
2026-04-24 02:29 -13.31955 -70.83126 23159 ft 407 kts 66°
2026-04-24 02:29 -13.30791 -70.80478 23146 ft 407 kts 66°
2026-04-24 02:29 -13.29628 -70.77834 23140 ft 407 kts 66°
2026-04-24 02:30 -13.28461 -70.75181 23135 ft 407 kts 66°
2026-04-24 02:30 -13.27296 -70.72534 23118 ft 407 kts 66°
2026-04-24 02:30 -13.26132 -70.69891 23111 ft 407 kts 66°
2026-04-24 02:30 -13.24966 -70.67244 23106 ft 407 kts 66°
2026-04-24 02:31 -13.23802 -70.64601 23093 ft 406 kts 66°
2026-04-24 02:31 -13.22654 -70.61994 23087 ft 406 kts 66°
2026-04-24 02:31 -13.21492 -70.59354 23090 ft 406 kts 66°
2026-04-24 02:31 -13.20328 -70.56711 23081 ft 406 kts 66°
2026-04-24 02:32 -13.19166 -70.54071 23074 ft 406 kts 66°
2026-04-24 02:32 -13.18001 -70.51429 23075 ft 406 kts 66°
2026-04-24 02:32 -13.16839 -70.48792 23062 ft 406 kts 66°
2026-04-24 02:32 -13.15675 -70.46151 23057 ft 406 kts 66°
2026-04-24 02:33 -13.14513 -70.43516 23061 ft 406 kts 66°
2026-04-24 02:33 -13.13367 -70.40919 23048 ft 401 kts 66°
2026-04-24 02:33 -13.12241 -70.38372 23045 ft 383 kts 66°
2026-04-24 02:33 -13.11167 -70.35941 23043 ft 365 kts 66°
2026-04-24 02:34 -13.10143 -70.33623 23040 ft 349 kts 66°
2026-04-24 02:34 -13.09166 -70.31412 23040 ft 332 kts 66°
2026-04-24 02:34 -13.08233 -70.29302 23042 ft 317 kts 66°
2026-04-24 02:34 -13.07347 -70.27297 23032 ft 301 kts 67°
2026-04-24 02:35 -13.06503 -70.25388 23038 ft 289 kts 67°
2026-04-24 02:35 -13.05679 -70.23519 23035 ft 295 kts 67°
2026-04-24 02:35 -13.04829 -70.21594 23021 ft 297 kts 67°
2026-04-24 02:35 -13.03982 -70.19678 22902 ft 293 kts 67°
2026-04-24 02:36 -13.03142 -70.17780 22594 ft 291 kts 67°
2026-04-24 02:36 -13.02306 -70.15891 22218 ft 290 kts 67°
2026-04-24 02:36 -13.01475 -70.14015 21867 ft 288 kts 67°
2026-04-24 02:36 -13.00650 -70.12150 21512 ft 286 kts 67°
2026-04-24 02:37 -12.99830 -70.10300 21150 ft 284 kts 67°
2026-04-24 02:37 -12.99028 -70.08488 20796 ft 282 kts 67°
2026-04-24 02:37 -12.98220 -70.06667 20461 ft 280 kts 67°
2026-04-24 02:37 -12.97417 -70.04853 20120 ft 278 kts 67°
2026-04-24 02:38 -12.96620 -70.03056 19785 ft 276 kts 66°
2026-04-24 02:38 -12.95827 -70.01268 19448 ft 275 kts 66°
2026-04-24 02:38 -12.95039 -69.99489 19112 ft 273 kts 66°
2026-04-24 02:38 -12.94253 -69.97717 18780 ft 272 kts 66°
2026-04-24 02:39 -12.93471 -69.95956 18454 ft 271 kts 66°
2026-04-24 02:39 -12.92704 -69.94227 18113 ft 269 kts 66°
2026-04-24 02:39 -12.91930 -69.92484 17739 ft 268 kts 66°
2026-04-24 02:39 -12.91161 -69.90752 17384 ft 266 kts 66°
2026-04-24 02:40 -12.90398 -69.89033 17036 ft 264 kts 66°
2026-04-24 02:40 -12.89639 -69.87324 16690 ft 263 kts 66°
2026-04-24 02:40 -12.88885 -69.85628 16357 ft 261 kts 66°
2026-04-24 02:40 -12.88134 -69.83938 16011 ft 259 kts 66°
2026-04-24 02:41 -12.87390 -69.82262 15679 ft 258 kts 67°
2026-04-24 02:41 -12.86649 -69.80596 15355 ft 256 kts 67°
2026-04-24 02:41 -12.85922 -69.78960 15032 ft 255 kts 67°
2026-04-24 02:41 -12.85190 -69.77315 14714 ft 253 kts 67°
2026-04-24 02:42 -12.84461 -69.75677 14397 ft 252 kts 67°
2026-04-24 02:42 -12.83737 -69.74049 14087 ft 250 kts 67°
2026-04-24 02:42 -12.83017 -69.72430 13761 ft 249 kts 67°
2026-04-24 02:42 -12.82299 -69.70818 13411 ft 248 kts 67°
2026-04-24 02:43 -12.81586 -69.69216 13076 ft 246 kts 67°
2026-04-24 02:43 -12.80876 -69.67621 12724 ft 246 kts 67°
2026-04-24 02:43 -12.80179 -69.66056 12400 ft 244 kts 67°
2026-04-24 02:43 -12.79475 -69.64475 12057 ft 244 kts 67°
2026-04-24 02:44 -12.78773 -69.62898 11736 ft 243 kts 67°
2026-04-24 02:44 -12.78073 -69.61327 11412 ft 242 kts 67°
2026-04-24 02:44 -12.77377 -69.59765 11107 ft 241 kts 67°
2026-04-24 02:44 -12.76685 -69.58213 10793 ft 240 kts 67°
2026-04-24 02:45 -12.75991 -69.56658 10504 ft 239 kts 67°
2026-04-24 02:45 -12.75303 -69.55113 10193 ft 238 kts 67°
2026-04-24 02:45 -12.74626 -69.53597 9902 ft 237 kts 67°
2026-04-24 02:45 -12.73918 -69.52074 9572 ft 237 kts 64°
2026-04-24 02:46 -12.73213 -69.50567 9279 ft 234 kts 69°
2026-04-24 02:46 -12.72586 -69.49036 8981 ft 232 kts 69°
2026-04-24 02:46 -12.71963 -69.47517 8683 ft 231 kts 69°
2026-04-24 02:46 -12.71323 -69.46014 8389 ft 230 kts 68°
2026-04-24 02:47 -12.70669 -69.44527 8111 ft 228 kts 68°
2026-04-24 02:47 -12.70010 -69.43052 7833 ft 227 kts 68°
2026-04-24 02:47 -12.69360 -69.41609 7534 ft 226 kts 68°
2026-04-24 02:47 -12.68701 -69.40151 7261 ft 225 kts 68°
2026-04-24 02:48 -12.68048 -69.38706 7011 ft 223 kts 68°
2026-04-24 02:48 -12.67399 -69.37268 6732 ft 222 kts 68°
2026-04-24 02:48 -12.66753 -69.35836 6483 ft 221 kts 68°
2026-04-24 02:48 -12.66110 -69.34414 6200 ft 219 kts 68°
2026-04-24 02:49 -12.65471 -69.33000 5919 ft 218 kts 68°
2026-04-24 02:49 -12.64834 -69.31587 5647 ft 218 kts 68°
2026-04-24 02:49 -12.64207 -69.30202 5380 ft 217 kts 69°
2026-04-24 02:49 -12.63576 -69.28803 5111 ft 216 kts 68°
2026-04-24 02:50 -12.62947 -69.27410 4858 ft 215 kts 68°
2026-04-24 02:50 -12.62322 -69.26023 4568 ft 215 kts 68°
2026-04-24 02:50 -12.61781 -69.24601 4293 ft 213 kts 82°
2026-04-24 02:50 -12.61875 -69.23133 4117 ft 205 kts 111°
2026-04-24 02:51 -12.62670 -69.21941 3948 ft 205 kts 140°
2026-04-24 02:51 -12.63894 -69.21266 3881 ft 196 kts 153°
2026-04-24 02:51 -12.65084 -69.20709 3816 ft 184 kts 152°
2026-04-24 02:51 -12.66186 -69.20187 3768 ft 167 kts 152°
2026-04-24 02:52 -12.67193 -69.19706 3677 ft 153 kts 151°
2026-04-24 02:52 -12.68137 -69.19251 3479 ft 149 kts 151°
2026-04-24 02:52 -12.69074 -69.18797 3220 ft 149 kts 151°
2026-04-24 02:52 -12.69992 -69.18353 3122 ft 146 kts 152°
2026-04-24 02:53 -12.70932 -69.17898 3101 ft 149 kts 152°
2026-04-24 02:53 -12.71875 -69.17446 3103 ft 150 kts 152°
2026-04-24 02:53 -12.72807 -69.17000 3104 ft 150 kts 152°
2026-04-24 02:53 -12.73789 -69.16647 3082 ft 151 kts 169°
2026-04-24 02:54 -12.74815 -69.16780 2902 ft 152 kts 199°
2026-04-24 02:54 -12.75636 -69.17475 2809 ft 159 kts 234°
2026-04-24 02:54 -12.75949 -69.18561 2801 ft 160 kts 270°
2026-04-24 02:54 -12.75608 -69.19641 2805 ft 163 kts 304°
2026-04-24 02:55 -12.74967 -69.20603 2802 ft 163 kts 306°
2026-04-24 02:55 -12.74342 -69.21557 2803 ft 164 kts 305°
2026-04-24 02:55 -12.73650 -69.22486 2734 ft 165 kts 320°
2026-04-24 02:55 -12.72672 -69.23046 2549 ft 159 kts 346°
2026-04-24 02:56 -12.71625 -69.23226 2352 ft 148 kts 359°
2026-04-24 02:56 -12.70585 -69.23244 2169 ft 151 kts
2026-04-24 02:56 -12.69555 -69.23213 1981 ft 148 kts
2026-04-24 02:56 -12.68527 -69.23173 1775 ft 146 kts
2026-04-24 02:57 -12.67525 -69.23131 1607 ft 147 kts
2026-04-24 02:57 -12.66507 -69.23087 1418 ft 147 kts
2026-04-24 02:57 -12.65487 -69.23043 1233 ft 151 kts
2026-04-24 02:57 -12.64436 -69.22998 1033 ft 149 kts
2026-04-24 02:58 -12.63391 -69.22957 844 ft 148 kts
2026-04-24 02:58 -12.62402 -69.22912 676 ft 134 kts
2026-04-24 02:58 -12.61567 -69.22878 666 ft 98 kts
2026-04-24 02:58 -12.61088 -69.22859 666 ft 40 kts
2026-04-24 02:59 -12.60991 -69.22854 667 ft 0 kts
2026-04-24 02:59 -12.60938 -69.22852 667 ft 33 kts
2026-04-24 02:59 -12.60613 -69.22841 665 ft 51 kts
2026-04-24 02:59 -12.60331 -69.22828 664 ft 10 kts
2026-04-24 03:00 -12.60287 -69.22794 664 ft 6 kts 98°
2026-04-24 03:00 -12.60290 -69.22740 664 ft 10 kts 91°
2026-04-24 03:00 -12.60291 -69.22656 663 ft 14 kts 92°
2026-04-24 03:00 -12.60295 -69.22548 665 ft 17 kts 92°
2026-04-24 03:01 -12.60301 -69.22416 665 ft 20 kts 92°
2026-04-24 03:01 -12.60306 -69.22286 665 ft 11 kts 96°
2026-04-24 03:01 -12.60338 -69.22247 665 ft 5 kts 137°
2026-04-24 03:01 -12.60332 -69.22205 663 ft 8 kts 60°
2026-04-24 03:02 -12.60326 -69.22199 664 ft 0 kts 46°